sat.trackr.live / text

‹ back to catalog

STARLINK-35881

NORAD 66830 · 2025-280K

PAYLOAD ACTIVE UNKNOWN

§ Identity

Operator
Country
US
Launch date
2025-12-02
Launch site
AFWTR
Launch vehicle
Mass (kg)
RCS (m²)

Purposes: comms

External: N2YO · Heavens-Above · Gunter

§ Orbital elements

Epoch: 2026-09-20T13:46:57.453312Z

Period
96.11 min
Inclination
70.0001°
Eccentricity
0.0002345
Mean motion
14.98334129 rev/d
Perigee alt
570.4 km
Apogee alt
573.7 km
Semi-major
6,950.2 km
B*
3.6832e-4
RAAN
203.2481°
Arg perigee
269.5795°
Mean anomaly
90.5096°
Rev number
4,526

§ Raw data

STARLINK-358811 66830U 25280K   26263.57427608  .00004305  00000+0  36832-3 0  99942 66830  70.0001 203.2481 0002345 269.5795  90.5096 14.98334129 45260

JSON: /api/v1/satellites/66830 · /tle

For live sub-satellite position, see the globe view (requires WebGL).

§ Visibility from observer

Set your observer location to see the next 7 days of passes ≥ 10°. The values pass through the URL so the page stays shareable.

No JS? Fill the form by hand. The geolocation button needs JavaScript.